Dewpoint
21 23 21 19 14 22 20 19 14 10 15 16 19 17 21 31 32 32 32 31 29 27 26 25 24 24 24 23 21 21 20 20 20 23 21 22 21 21 22 23 25 25 25 22
19 23 27 24 22 20 22 22 22 22 19 21 22 23 24 29 31 31 30 27 26 24 23 24 24 22 21 21 20 19 16 16 21 21 20 20 21 21 22 21 23 23 22 19
11 19 15 12 15 18 21 24 20 14 15 18 18 18 21 31 31 30 28 25 23 22 23 23 21 21 20 20 21 19 18 17 20 19 18 19 20 21 20 20 22 22 21 19
13 14 8 13 15 17 18 19 24 22 23 24 23 30 31 32 32 30 26 24 22 22 22 21 21 21 21 21 22 22 21 17 16 17 17 19 19 19 20 21 21 21 19 19
18 14 16 15 13 12 13 9 21 20 21 26 29 29 29 30 30 26 24 24 24 22 22 21 21 22 21 15 15 17 16 16 18 21 20 20 20 20 21 21 21 19 19 19
24 15 9 9 18 15 11 6 21 25 25 26 25 22 27 26 26 25 24 23 23 24 24 20 17 14 13 14 16 18 19 19 19 18 18 17 20 20 21 20 20 21 21 21
21 18 19 21 22 15 9 10 25 27 26 25 23 26 26 25 24 23 23 24 20 15 13 13 14 14 14 15 16 18 17 17 17 18 19 21 22 22 22 22 22 21 21 21
23 20 18 26 15 12 17 26 29 29 28 26 26 25 24 24 23 23 18 13 13 13 14 14 14 14 15 14 16 16 17 17 18 20 22 22 23 23 22 22 21 21 21 20
24 22 26 24 18 26 27 28 30 28 28 27 25 24 25 20 11 10 11 12 13 13 12 13 15 16 16 17 17 18 19 19 20 22 22 24 23 22 21 21 21 19 18 20
23 23 27 26 26 28 29 31 31 29 27 26 25 23 11 10 11 12 13 13 13 12 12 13 16 18 17 18 21 21 20 20 21 22 23 23 22 21 20 20 18 17 18 20
26 28 27 27 26 32 33 32 29 28 27 25 18 12 11 12 12 12 12 12 13 13 14 16 17 18 20 23 24 22 21 21 22 22 23 21 19 19 18 18 17 18 19 20
22 27 27 27 30 33 30 28 26 24 18 14 12 12 13 12 13 12 13 13 14 15 15 17 19 22 24 25 25 23 22 22 22 21 22 19 17 15 15 14 16 18 20 18
24 30 30 31 32 29 25 21 18 16 14 14 15 14 14 14 14 15 14 14 14 16 19 20 23 25 26 26 25 24 22 21 21 21 17 15 14 13 13 15 17 19 13 13
31 29 28 29 27 23 17 17 16 15 15 14 14 14 14 15 16 15 14 16 19 20 22 23 24 24 25 25 22 21 20 20 19 17 15 14 13 14 16 18 12 11 12 12
30 29 29 25 19 16 15 14 14 14 14 15 15 14 14 14 13 14 18 20 21 23 24 23 22 21 25 21 18 16 15 14 14 14 14 14 15 18 12 10 10 11 13 12
27 25 22 19 15 15 15 15 14 15 15 14 14 14 15 14 15 17 20 22 22 23 22 20 19 19 22 18 15 13 13 13 13 14 14 15 13 9 10 11 11 11 9 10
25 23 21 17 16 16 16 16 16 17 15 11 13 15 13 15 17 19 20 22 24 21 21 18 17 21 18 17 14 12 12 13 14 14 12 9 9 10 13 9 9 9 8 8
26 25 23 18 17 18 18 18 18 18 14 13 14 14 16 17 18 20 21 23 23 20 18 18 20 17 15 14 13 12 14 14 14 10 9 10 11 10 8 9 8 8 9 9
25 24 19 19 20 20 20 19 19 20 17 15 15 18 19 19 20 20 22 20 18 17 17 18 21 17 15 13 13 14 14 12 9 9 9 9 8 8 8 8 9 9 9 8
21 20 21 22 22 21 19 19 20 17 15 16 18 17 18 18 19 20 21 20 20 19 19 19 18 15 12 11 13 14 10 9 9 9 10 8 9 8 8 9 8 8 9 9
21 21 22 24 23 21 19 20 18 15 17 17 17 17 18 19 18 19 19 18 20 18 18 17 15 12 12 13 14 10 9 9 9 9 9 9 9 8 8 8 8 8 8 8
22 22 23 23 21 20 19 18 16 16 17 17 18 18 20 19 18 20 20 18 19 16 17 15 12 12 12 11 10 9 9 9 9 9 9 9 8 8 8 8 7 8 8 7
22 22 22 21 20 19 18 16 16 17 17 17 19 19 20 21 19 15 15 17 15 15 15 13 11 10 7 9 9 9 8 8 9 8 9 8 8 8 8 7 7 7 6 6
20 20 20 19 16 14 14 17 18 18 18 19 17 18 20 18 19 18 15 12 12 11 10 10 8 7 6 7 7 6 6 7 8 8 7 7 8 8 6 6 5 5 5 5
20 18 16 15 16 18 21 23 21 21 19 18 20 21 20 19 15 13 9 11 10 9 8 6 5 5 5 5 5 5 6 7 8 7 7 7 7 5 4 4 4 4 4 4
16 14 15 19 22 23 23 22 21 21 18 18 19 19 18 16 12 8 8 8 7 7 4 4 4 4 4 4 4 4 5 6 6 6 6 6 4 3 2 2 2 2 3 4
22 22 22 23 23 22 20 20 20 19 16 16 17 17 15 11 7 6 6 4 4 3 2 2 2 3 3 3 3 3 4 4 5 4 4 3 1 1 0 1 1 2 3 3
Wind_Speed
6 5 6 5 7 10 14 16 14 23 15 26 9 8 1 5 8 14 16 18 20 22 22 20 19 16 13 11 9 6 6 4 3 7 6 4 2 2 5 7 8 7 7 6
3 3 8 10 13 16 17 14 18 17 32 16 20 16 12 12 17 18 18 19 20 21 20 18 16 14 11 8 6 5 3 2 5 7 5 3 4 5 7 9 9 8 9 9
4 3 1 7 22 19 9 7 7 16 20 12 16 14 11 14 17 20 20 21 20 18 17 16 14 12 9 6 3 1 2 1 5 3 4 6 8 9 11 12 8 11 11 11
2 2 6 8 6 7 9 13 15 15 16 16 12 5 9 9 20 20 21 20 18 17 16 14 10 8 5 3 3 4 3 1 2 6 8 9 11 13 14 11 12 9 13 13
3 6 9 11 2 2 3 6 1 6 10 2 11 9 13 11 13 16 18 17 17 16 14 10 7 6 8 9 9 9 7 9 12 12 12 14 16 16 14 10 9 15 14 15
4 2 5 4 1 1 2 10 3 5 8 12 3 8 3 8 17 20 20 19 18 14 13 13 10 11 13 11 12 13 13 12 11 12 12 13 11 10 10 12 15 14 14 13
8 5 9 11 10 0 1 4 4 3 4 6 2 2 16 17 19 19 18 17 18 18 17 13 11 12 14 13 13 11 11 11 12 12 11 9 13 11 13 14 15 16 16 15
4 5 10 5 2 5 4 2 1 3 5 13 18 19 19 19 18 17 18 18 17 18 15 13 13 13 12 12 10 11 11 11 11 11 11 11 12 13 14 15 16 16 17 17
14 9 4 4 4 3 6 3 4 7 12 21 22 20 19 19 20 18 17 15 13 15 15 13 13 12 12 10 11 12 12 12 10 12 12 11 12 14 14 14 14 16 16 17
5 5 12 7 4 4 4 4 10 15 18 20 25 21 22 19 16 16 14 14 13 14 14 14 12 12 11 11 11 10 12 13 12 13 13 12 11 12 13 14 15 18 18 19
5 5 1 7 6 6 11 18 21 18 18 21 25 20 20 17 16 15 15 13 13 13 12 12 11 12 11 12 11 11 11 12 12 13 14 13 12 12 14 14 15 19 19 18
14 15 7 4 12 16 21 19 19 27 22 18 23 21 20 17 15 15 14 12 12 12 12 11 11 11 11 12 12 13 13 13 14 15 13 13 16 19 15 19 21 23 22 19
8 11 5 15 14 15 22 20 21 24 24 25 18 21 19 18 15 16 13 11 12 11 10 10 11 12 13 14 14 15 15 16 14 14 15 17 18 18 22 17 19 16 24 25
19 22 12 11 11 18 27 23 25 23 21 21 21 18 18 17 15 14 12 10 10 10 11 12 12 14 14 14 15 15 15 15 15 16 17 17 17 17 17 17 21 21 19 22
7 4 16 25 24 23 24 26 25 22 20 19 17 18 16 15 14 12 11 10 11 12 12 12 13 13 11 13 14 15 15 16 16 16 15 16 16 14 16 18 18 19 19 17
17 25 25 29 26 24 23 21 26 19 19 17 18 16 15 14 14 13 12 11 12 12 11 12 12 13 9 12 15 15 15 16 15 14 15 14 15 17 17 17 19 18 19 18
29 18 22 23 24 23 20 17 21 20 18 18 17 14 14 14 13 12 11 9 11 12 10 10 11 10 12 13 15 14 13 13 15 13 13 16 15 16 15 18 18 18 18 18
18 24 24 31 28 26 21 20 21 20 19 17 16 16 15 14 11 9 9 9 8 9 10 9 9 10 13 14 15 14 12 13 13 15 15 14 16 15 17 16 18 18 18 18
27 27 26 25 25 25 23 21 20 20 17 17 17 15 12 11 9 8 9 10 9 9 12 10 8 12 13 15 15 12 12 13 14 14 14 16 16 15 17 17 17 18 18 19
26 26 27 26 23 27 25 20 20 19 16 18 17 15 14 11 10 11 7 7 8 6 9 10 9 12 13 14 14 10 12 13 14 14 13 15 15 17 16 17 18 18 19 18
29 28 28 27 24 22 22 20 21 19 16 17 17 14 11 8 8 6 6 6 7 10 9 9 10 10 10 12 11 11 12 12 13 13 14 15 16 16 16 17 18 18 18 19
26 27 26 26 25 22 18 17 20 20 18 16 13 12 12 9 7 7 8 8 6 11 8 7 8 11 10 12 10 11 12 12 12 12 13 14 15 16 17 18 18 18 18 18
24 26 26 25 26 23 19 19 19 19 17 14 13 11 8 8 7 8 6 7 8 8 6 7 10 11 13 10 10 11 11 12 11 12 13 14 14 15 17 17 18 17 18 19
25 24 24 23 24 24 23 16 15 14 14 14 11 8 11 12 9 8 8 7 7 7 8 9 11 13 14 12 12 12 11 11 11 12 13 14 14 14 16 16 17 17 17 19
25 23 24 23 21 17 18 15 16 16 14 11 8 9 10 6 6 6 7 6 6 7 8 10 12 13 14 13 13 13 11 11 11 13 13 14 13 16 16 16 16 18 18 18
24 20 17 16 17 16 14 14 15 13 13 11 9 10 11 10 10 8 6 6 6 7 9 11 12 13 13 13 13 13 11 12 12 12 14 13 14 15 16 17 17 17 18 18
19 20 19 16 13 14 14 15 15 13 10 11 12 9 10 10 8 6 5 6 7 8 10 11 12 12 12 13 12 12 11 11 12 13 13 13 14 14 15 16 17 17 18 18
Wind_Direction
226 214 195 220 229 211 218 232 238 268 264 267 298 270 47 151 134 126 120 117 119 120 121 123 123 120 116 114 112 105 105 112 133 157 153 163 189 276 308 314 293 288 285 286
277 244 232 250 258 246 240 252 250 265 274 279 275 271 271 202 160 138 128 124 124 124 125 125 126 125 120 118 114 109 93 114 173 175 186 218 259 284 293 293 290 283 264 278
238 358 23 274 245 237 222 214 211 253 263 291 289 291 285 173 151 145 138 132 129 128 128 131 131 129 123 122 125 80 351 311 178 197 251 260 272 282 284 288 280 273 260 280
192 63 262 254 273 252 243 262 227 262 280 291 289 56 54 142 144 138 131 128 126 125 124 126 126 120 115 85 46 19 13 102 251 268 277 283 287 288 293 299 290 273 291 280
215 205 297 296 6 132 190 291 235 282 300 235 130 81 44 46 103 116 116 112 114 114 117 119 113 91 85 63 49 36 16 356 353 347 335 334 328 320 318 318 318 305 290 280
147 216 257 247 297 51 98 285 331 298 301 172 185 175 150 87 101 101 101 107 113 105 93 84 76 81 76 57 48 37 32 31 24 10 354 340 343 351 338 326 312 307 305 304
182 223 278 256 250 146 204 260 324 356 144 170 171 230 132 109 98 102 110 104 90 85 82 79 76 74 63 53 44 26 13 5 360 354 347 7 350 346 334 331 328 324 316 306
140 202 268 190 133 201 208 161 128 100 121 110 111 106 106 102 99 92 90 92 93 89 76 61 57 72 67 47 15 2 357 357 356 6 360 347 344 340 337 332 329 321 314 310
193 212 229 209 222 192 165 167 157 124 124 123 116 110 103 95 94 92 94 93 90 88 77 59 61 66 53 16 357 355 0 4 10 353 343 341 341 335 332 324 320 314 311 309
167 228 230 221 182 164 170 132 120 124 125 121 118 111 109 105 102 96 88 81 83 80 70 58 56 49 29 5 356 9 14 360 343 340 333 334 333 329 318 315 317 314 311 307
233 255 188 237 208 148 109 116 114 106 113 119 115 113 115 107 99 91 86 79 72 67 60 50 41 29 16 8 8 7 350 338 336 338 327 330 324 320 320 309 306 308 309 308
221 208 185 203 159 138 127 125 120 120 106 102 114 114 108 99 96 94 84 72 66 59 49 37 33 27 16 5 355 347 346 346 343 337 334 331 326 320 317 315 316 312 315 331
215 148 109 120 114 122 122 121 116 113 116 114 102 106 101 102 95 90 81 72 59 53 49 40 36 27 6 359 0 5 358 346 341 344 335 329 324 321 319 320 315 332 330 325
133 113 104 134 149 122 117 112 104 99 99 102 105 100 103 100 90 80 69 62 58 54 44 38 32 22 10 17 10 2 354 348 341 331 326 323 323 319 318 330 334 329 331 329
161 100 137 120 117 117 118 118 109 108 107 100 100 105 103 100 89 77 66 59 55 53 49 40 30 15 22 24 11 356 346 337 333 327 323 321 322 333 338 329 330 325 327 332
113 115 125 128 130 129 125 120 118 118 112 110 105 104 103 99 87 73 62 51 60 58 46 32 20 1 37 14 359 347 336 330 330 326 326 334 342 335 333 332 329 330 330 329
123 126 130 133 137 136 133 127 125 125 120 114 115 113 103 92 79 65 55 54 86 66 40 26 3 11 360 1 349 337 330 330 328 334 343 337 337 330 332 332 329 329 329 327
150 155 153 145 142 132 124 122 121 121 121 119 110 101 95 85 77 60 54 80 93 55 24 11 8 13 1 357 343 334 328 329 339 344 337 338 335 341 333 330 333 329 326 329
132 130 129 128 128 125 125 123 119 118 116 113 108 102 97 85 75 68 90 69 39 17 1 357 10 11 354 346 341 330 336 343 340 339 337 342 340 337 335 336 331 328 329 328
116 117 117 118 120 124 121 120 118 113 111 113 112 105 93 78 85 91 95 69 51 16 349 357 11 2 341 341 339 340 346 340 341 337 344 342 338 336 333 333 329 329 329 327
123 121 120 118 115 115 119 124 121 120 121 117 114 108 98 105 104 97 80 73 37 13 3 12 20 351 342 344 348 348 343 341 342 341 341 336 337 332 333 330 330 332 328 328
124 121 119 119 119 116 117 119 120 123 122 116 108 108 117 116 105 97 74 56 20 13 4 22 359 359 2 355 350 347 342 342 339 337 337 340 333 330 330 331 331 328 328 325
121 121 121 123 125 124 119 125 127 130 130 125 125 128 120 108 102 81 64 39 30 24 29 11 6 15 3 357 349 343 338 337 335 337 336 334 328 327 330 329 327 328 327 326
118 117 117 119 121 122 125 128 124 126 121 120 124 128 136 117 91 73 73 47 35 36 24 20 16 10 8 355 347 342 338 332 330 339 334 329 327 331 328 326 327 326 324 323
119 122 125 128 126 128 127 127 120 123 118 111 115 105 97 87 109 101 71 54 46 35 37 18 14 12 1 351 345 342 335 329 338 341 332 328 335 331 327 325 325 324 322 322
126 129 127 124 129 130 130 132 135 138 130 122 123 113 102 96 98 85 69 59 47 48 35 18 16 4 355 348 342 340 336 340 343 337 335 333 333 328 325 323 323 323 321 321
115 117 116 113 114 126 131 134 141 147 144 150 138 131 123 113 96 87 82 59 49 44 27 21 13 4 352 347 343 341 342 340 341 338 332 332 330 323 321 321 321 319 320 322